Time,TemperatureF,DewpointF,PressureIn,WindDirection,WindDirectionDegrees,WindSpeedMPH,WindSpeedGustMPH,Humidity,HourlyPrecipIn,Conditions,Clouds,dailyrainin,SoftwareType,DateUTC
2013-01-25 00:02:00,21.0,9.0,30.39,ESE,123,4.0,8.0,59,0.00,,,0.00,,2013-01-25 06:02:00,
2013-01-25 00:11:00,21.0,9.0,30.39,ESE,123,4.0,8.0,59,0.00,,,0.00,,2013-01-25 06:11:00,
2013-01-25 00:21:00,21.0,9.0,30.40,ESE,111,5.0,9.0,59,0.00,,,0.00,,2013-01-25 06:21:00,
2013-01-25 00:32:00,21.0,9.0,30.40,SE,136,3.0,7.0,59,0.00,,,0.00,,2013-01-25 06:32:00,
2013-01-25 00:42:00,21.0,9.0,30.40,SE,136,3.0,7.0,59,0.00,,,0.00,,2013-01-25 06:42:00,
2013-01-25 00:52:00,21.0,9.0,30.39,NE,53,3.0,6.0,59,0.00,,,0.00,,2013-01-25 06:52:00,
2013-01-25 01:02:00,21.0,9.0,30.37,SE,136,2.0,7.0,59,0.00,,,0.00,,2013-01-25 07:02:00,
2013-01-25 01:11:00,21.0,9.0,30.37,SE,136,2.0,7.0,59,0.00,,,0.00,,2013-01-25 07:11:00,
2013-01-25 01:21:00,21.0,9.0,30.37,East,86,3.0,7.0,59,0.00,,,0.00,,2013-01-25 07:21:00,
2013-01-25 01:32:00,21.0,9.0,30.36,SSE,149,2.0,5.0,59,0.00,,,0.00,,2013-01-25 07:32:00,
2013-01-25 01:42:00,21.0,9.0,30.36,SSE,149,2.0,5.0,59,0.00,,,0.00,,2013-01-25 07:42:00,
2013-01-25 01:51:00,21.0,9.0,30.35,SE,143,3.0,9.0,59,0.00,,,0.00,,2013-01-25 07:51:00,
2013-01-25 02:01:00,21.0,9.0,30.34,SSE,156,2.0,6.0,59,0.00,,,0.00,,2013-01-25 08:01:00,
2013-01-25 02:11:00,21.0,9.0,30.34,SSE,156,2.0,6.0,59,0.00,,,0.00,,2013-01-25 08:11:00,
2013-01-25 02:21:00,21.0,9.0,30.34,SSE,166,2.0,6.0,59,0.00,,,0.00,,2013-01-25 08:21:00,
2013-01-25 02:32:00,21.0,9.0,30.32,SSE,150,4.0,8.0,59,0.00,,,0.00,,2013-01-25 08:32:00,
2013-01-25 02:41:00,21.0,9.0,30.32,SSE,150,4.0,8.0,59,0.00,,,0.00,,2013-01-25 08:41:00,
2013-01-25 02:52:00,21.0,9.0,30.31,East,94,3.0,10.0,59,0.00,,,0.00,,2013-01-25 08:52:00,
2013-01-25 03:02:00,21.0,9.0,30.29,SE,141,3.0,8.0,58,0.00,,,0.00,,2013-01-25 09:02:00,
2013-01-25 03:11:00,21.0,9.0,30.29,SE,141,3.0,8.0,58,0.00,,,0.00,,2013-01-25 09:11:00,
2013-01-25 03:21:00,21.0,9.0,30.29,SE,132,3.0,10.0,58,0.00,,,0.00,,2013-01-25 09:21:00,
2013-01-25 03:31:00,21.0,9.0,30.28,SE,142,4.0,8.0,58,0.00,,,0.00,,2013-01-25 09:31:00,
2013-01-25 03:41:00,21.0,9.0,30.28,SE,142,4.0,8.0,58,0.00,,,0.00,,2013-01-25 09:41:00,
2013-01-25 03:51:00,21.0,9.0,30.27,SE,144,3.0,6.0,58,0.00,,,0.00,,2013-01-25 09:51:00,
2013-01-25 04:02:00,21.0,8.0,30.25,ENE,77,3.0,7.0,56,0.00,,,0.00,,2013-01-25 10:02:00,
2013-01-25 04:12:00,21.0,8.0,30.25,ENE,77,3.0,7.0,56,0.00,,,0.00,,2013-01-25 10:12:00,
2013-01-25 04:21:00,21.0,8.0,30.24,East,96,3.0,7.0,56,0.00,,,0.00,,2013-01-25 10:21:00,
2013-01-25 04:32:00,21.0,8.0,30.24,SE,136,2.0,7.0,56,0.00,,,0.00,,2013-01-25 10:32:00,
2013-01-25 04:42:00,21.0,8.0,30.24,SE,136,2.0,7.0,56,0.00,,,0.00,,2013-01-25 10:42:00,
2013-01-25 04:51:00,22.0,9.0,30.24,SSE,167,3.0,8.0,56,0.00,,,0.00,,2013-01-25 10:51:00,
2013-01-25 05:02:00,22.0,9.0,30.23,SSE,149,3.0,7.0,56,0.00,,,0.00,,2013-01-25 11:02:00,
2013-01-25 05:11:00,22.0,9.0,30.23,SSE,149,3.0,7.0,56,0.00,,,0.00,,2013-01-25 11:11:00,
2013-01-25 05:22:00,22.0,10.0,30.24,East,100,2.0,7.0,59,0.00,,,0.00,,2013-01-25 11:22:00,
2013-01-25 05:32:00,20.0,12.0,30.22,SSE,164,2.0,7.0,72,0.00,,,0.00,,2013-01-25 11:32:00,
2013-01-25 05:42:00,20.0,12.0,30.22,SSE,164,2.0,7.0,72,0.00,,,0.00,,2013-01-25 11:42:00,
2013-01-25 05:52:00,20.0,13.0,30.21,SE,129,4.0,8.0,74,0.00,,,0.00,,2013-01-25 11:52:00,
2013-01-25 06:02:00,20.0,14.0,30.20,East,88,4.0,8.0,76,0.00,,,0.00,,2013-01-25 12:02:00,
2013-01-25 06:11:00,20.0,14.0,30.20,East,88,4.0,8.0,76,0.00,,,0.00,,2013-01-25 12:11:00,
2013-01-25 06:22:00,20.0,14.0,30.20,ENE,78,4.0,8.0,76,0.00,,,0.00,,2013-01-25 12:22:00,
2013-01-25 06:32:00,20.0,15.0,30.19,SSE,148,5.0,9.0,79,0.00,,,0.00,,2013-01-25 12:32:00,
2013-01-25 06:42:00,20.0,15.0,30.19,SSE,148,5.0,9.0,79,0.00,,,0.00,,2013-01-25 12:42:00,
2013-01-25 06:53:00,19.0,15.0,30.19,South,175,3.0,7.0,83,0.00,,,0.00,,2013-01-25 12:53:00,
2013-01-25 07:02:00,19.0,15.0,30.19,SSE,159,3.0,5.0,84,0.00,,,0.00,,2013-01-25 13:02:00,
2013-01-25 07:11:00,19.0,15.0,30.19,SSE,159,3.0,5.0,84,0.00,,,0.00,,2013-01-25 13:11:00,
2013-01-25 07:22:00,19.0,15.0,30.19,South,169,2.0,6.0,84,0.00,,,0.00,,2013-01-25 13:22:00,
2013-01-25 07:32:00,19.0,15.0,30.19,South,170,1.0,4.0,85,0.00,,,0.00,,2013-01-25 13:32:00,
2013-01-25 07:42:00,19.0,15.0,30.19,South,170,1.0,4.0,85,0.00,,,0.00,,2013-01-25 13:42:00,
2013-01-25 07:52:00,19.0,15.0,30.21,SSW,198,0.0,3.0,85,0.00,,,0.00,,2013-01-25 13:52:00,
2013-01-25 08:03:00,19.0,16.0,30.19,SSW,202,2.0,4.0,86,0.00,,,0.00,,2013-01-25 14:03:00,
2013-01-25 08:12:00,19.0,16.0,30.19,SSW,202,2.0,4.0,86,0.00,,,0.00,,2013-01-25 14:12:00,
2013-01-25 08:22:00,19.0,16.0,30.17,SSE,166,2.0,5.0,87,0.00,,,0.00,,2013-01-25 14:22:00,
2013-01-25 08:32:00,19.0,16.0,30.17,SSE,166,2.0,5.0,87,0.00,,,0.00,,2013-01-25 14:32:00,
2013-01-25 08:42:00,19.0,16.0,30.17,SSE,166,2.0,5.0,87,0.00,,,0.00,,2013-01-25 14:42:00,
2013-01-25 08:52:00,20.0,17.0,30.17,SSE,162,2.0,4.0,87,0.00,,,0.00,,2013-01-25 14:52:00,
2013-01-25 09:02:00,20.0,16.0,30.16,SSE,161,3.0,6.0,86,0.00,,,0.00,,2013-01-25 15:02:00,
2013-01-25 09:12:00,20.0,16.0,30.16,SSE,161,3.0,6.0,86,0.00,,,0.00,,2013-01-25 15:12:00,
2013-01-25 09:22:00,20.0,16.0,30.16,South,171,2.0,6.0,86,0.00,,,0.00,,2013-01-25 15:22:00,
2013-01-25 09:32:00,21.0,17.0,30.17,SW,231,3.0,8.0,85,0.00,,,0.00,,2013-01-25 15:32:00,
2013-01-25 09:42:00,21.0,17.0,30.17,SW,231,3.0,8.0,85,0.00,,,0.00,,2013-01-25 15:42:00,
2013-01-25 09:52:00,21.0,17.0,30.17,SSW,205,3.0,7.0,85,0.00,,,0.00,,2013-01-25 15:52:00,
2013-01-25 10:03:00,21.0,17.0,30.17,SSW,205,3.0,7.0,85,0.00,,,0.00,,2013-01-25 16:03:00,
2013-01-25 10:12:00,21.0,17.0,30.17,SSW,205,3.0,7.0,85,0.00,,,0.00,,2013-01-25 16:12:00,
2013-01-25 10:22:00,21.0,17.0,30.16,SW,220,5.0,9.0,84,0.00,,,0.00,,2013-01-25 16:22:00,
2013-01-25 10:32:00,22.0,18.0,30.16,SSW,205,5.0,11.0,84,0.00,,,0.00,,2013-01-25 16:32:00,
2013-01-25 10:43:00,22.0,18.0,30.16,SSW,205,5.0,11.0,84,0.00,,,0.00,,2013-01-25 16:43:00,
2013-01-25 10:52:00,22.0,18.0,30.16,WNW,290,5.0,9.0,83,0.00,,,0.00,,2013-01-25 16:52:00,
2013-01-25 11:02:00,23.0,18.0,30.15,SW,225,3.0,7.0,82,0.00,,,0.00,,2013-01-25 17:02:00,
2013-01-25 11:12:00,23.0,18.0,30.15,SW,225,3.0,7.0,82,0.00,,,0.00,,2013-01-25 17:12:00,
2013-01-25 11:22:00,23.0,18.0,30.14,SSW,201,4.0,8.0,81,0.00,,,0.00,,2013-01-25 17:22:00,
2013-01-25 11:32:00,24.0,19.0,30.13,SSW,199,5.0,9.0,81,0.00,,,0.00,,2013-01-25 17:32:00,
2013-01-25 11:43:00,24.0,19.0,30.13,SSW,199,5.0,9.0,81,0.00,,,0.00,,2013-01-25 17:43:00,
2013-01-25 11:52:00,24.0,19.0,30.12,South,187,3.0,7.0,80,0.00,,,0.00,,2013-01-25 17:52:00,
2013-01-25 12:03:00,25.0,19.0,30.11,SW,232,3.0,8.0,79,0.00,,,0.00,,2013-01-25 18:03:00,
2013-01-25 12:12:00,25.0,19.0,30.11,SW,232,3.0,8.0,79,0.00,,,0.00,,2013-01-25 18:12:00,
2013-01-25 12:23:00,26.0,20.0,30.10,SW,227,4.0,8.0,78,0.00,,,0.00,,2013-01-25 18:23:00,
2013-01-25 12:33:00,26.0,19.0,30.09,SW,236,3.0,10.0,76,0.00,,,0.00,,2013-01-25 18:33:00,
2013-01-25 12:42:00,26.0,19.0,30.09,SW,236,3.0,10.0,76,0.00,,,0.00,,2013-01-25 18:42:00,
2013-01-25 12:52:00,27.0,20.0,30.08,SW,233,5.0,12.0,74,0.00,,,0.00,,2013-01-25 18:52:00,
2013-01-25 13:03:00,27.0,20.0,30.07,NW,305,3.0,9.0,74,0.00,,,0.00,,2013-01-25 19:03:00,
2013-01-25 13:12:00,27.0,20.0,30.07,NW,305,3.0,9.0,74,0.00,,,0.00,,2013-01-25 19:12:00,
2013-01-25 13:22:00,27.0,19.0,30.06,WNW,303,3.0,7.0,72,0.00,,,0.00,,2013-01-25 19:22:00,
2013-01-25 13:32:00,28.0,20.0,30.06,WSW,242,4.0,10.0,71,0.00,,,0.00,,2013-01-25 19:32:00,
2013-01-25 13:42:00,28.0,20.0,30.06,WSW,242,4.0,10.0,71,0.00,,,0.00,,2013-01-25 19:42:00,
2013-01-25 13:52:00,28.0,20.0,30.06,NNW,344,4.0,10.0,72,0.00,,,0.00,,2013-01-25 19:52:00,
2013-01-25 14:03:00,28.0,20.0,30.05,WSW,247,2.0,8.0,71,0.00,,,0.00,,2013-01-25 20:03:00,
2013-01-25 14:12:00,28.0,20.0,30.05,WSW,247,2.0,8.0,71,0.00,,,0.00,,2013-01-25 20:12:00,
2013-01-25 14:22:00,29.0,20.0,30.05,WSW,256,5.0,8.0,68,0.00,,,0.00,,2013-01-25 20:22:00,
2013-01-25 14:32:00,29.0,19.0,30.04,West,261,5.0,10.0,67,0.00,,,0.00,,2013-01-25 20:32:00,
2013-01-25 14:42:00,29.0,19.0,30.04,West,261,5.0,10.0,67,0.00,,,0.00,,2013-01-25 20:42:00,
2013-01-25 14:52:00,30.0,20.0,30.05,SW,236,3.0,8.0,66,0.00,,,0.00,,2013-01-25 20:52:00,
2013-01-25 15:02:00,30.0,20.0,30.05,NW,326,5.0,10.0,66,0.00,,,0.00,,2013-01-25 21:02:00,
2013-01-25 15:12:00,30.0,20.0,30.05,NW,326,5.0,10.0,66,0.00,,,0.00,,2013-01-25 21:12:00,
2013-01-25 15:22:00,32.0,22.0,30.04,WSW,248,3.0,8.0,66,0.00,,,0.00,,2013-01-25 21:22:00,
2013-01-25 15:33:00,32.0,22.0,30.05,WSW,246,3.0,9.0,65,0.00,,,0.00,,2013-01-25 21:33:00,
2013-01-25 15:42:00,32.0,22.0,30.05,WSW,246,3.0,9.0,65,0.00,,,0.00,,2013-01-25 21:42:00,
2013-01-25 15:52:00,32.0,21.0,30.04,SW,215,3.0,8.0,64,0.00,,,0.00,,2013-01-25 21:52:00,
2013-01-25 16:03:00,33.0,22.0,30.03,WNW,295,3.0,8.0,63,0.00,,,0.00,,2013-01-25 22:03:00,
2013-01-25 16:11:00,33.0,22.0,30.03,WNW,295,3.0,8.0,63,0.00,,,0.00,,2013-01-25 22:11:00,
2013-01-25 16:22:00,33.0,21.0,30.03,SW,217,3.0,8.0,62,0.00,,,0.00,,2013-01-25 22:22:00,
2013-01-25 16:33:00,33.0,21.0,30.03,WSW,250,2.0,9.0,62,0.00,,,0.00,,2013-01-25 22:33:00,
2013-01-25 16:42:00,33.0,21.0,30.03,WSW,250,2.0,9.0,62,0.00,,,0.00,,2013-01-25 22:42:00,
2013-01-25 16:52:00,32.0,21.0,30.03,NW,308,3.0,7.0,63,0.00,,,0.00,,2013-01-25 22:52:00,
2013-01-25 17:02:00,32.0,21.0,30.04,NNW,340,2.0,6.0,63,0.00,,,0.00,,2013-01-25 23:02:00,
2013-01-25 17:12:00,32.0,21.0,30.04,NNW,340,2.0,6.0,63,0.00,,,0.00,,2013-01-25 23:12:00,
2013-01-25 17:22:00,31.0,20.0,30.05,WSW,245,2.0,6.0,64,0.00,,,0.00,,2013-01-25 23:22:00,
2013-01-25 17:32:00,31.0,21.0,30.06,NNW,331,0.0,6.0,65,0.00,,,0.00,,2013-01-25 23:32:00,
2013-01-25 17:42:00,31.0,21.0,30.06,NNW,331,0.0,6.0,65,0.00,,,0.00,,2013-01-25 23:42:00,
2013-01-25 17:52:00,30.0,20.0,30.06,WSW,241,2.0,5.0,66,0.00,,,0.00,,2013-01-25 23:52:00,
2013-01-25 18:02:00,29.0,19.0,30.06,WSW,252,0.0,3.0,67,0.00,,,0.00,,2013-01-26 00:02:00,
2013-01-25 18:11:00,29.0,19.0,30.06,WSW,252,0.0,3.0,67,0.00,,,0.00,,2013-01-26 00:11:00,
2013-01-25 18:22:00,29.0,20.0,30.06,WSW,253,1.0,4.0,68,0.00,,,0.00,,2013-01-26 00:22:00,
2013-01-25 18:32:00,29.0,20.0,30.07,WSW,255,2.0,4.0,68,0.00,,,0.00,,2013-01-26 00:32:00,
2013-01-25 18:42:00,29.0,20.0,30.07,WSW,255,2.0,4.0,68,0.00,,,0.00,,2013-01-26 00:42:00,
2013-01-25 18:52:00,29.0,20.0,30.07,WSW,240,3.0,5.0,68,0.00,,,0.00,,2013-01-26 00:52:00,
2013-01-25 19:02:00,29.0,20.0,30.07,WSW,244,2.0,4.0,68,0.00,,,0.00,,2013-01-26 01:02:00,
2013-01-25 19:11:00,29.0,20.0,30.07,WSW,244,2.0,4.0,68,0.00,,,0.00,,2013-01-26 01:11:00,
2013-01-25 19:22:00,28.0,19.0,30.08,WSW,247,2.0,5.0,69,0.00,,,0.00,,2013-01-26 01:22:00,
2013-01-25 19:32:00,28.0,19.0,30.08,West,272,3.0,6.0,69,0.00,,,0.00,,2013-01-26 01:32:00,
2013-01-25 19:42:00,28.0,19.0,30.08,West,272,3.0,6.0,69,0.00,,,0.00,,2013-01-26 01:42:00,
2013-01-25 19:52:00,27.0,19.0,30.09,NE,49,1.0,8.0,70,0.00,,,0.00,,2013-01-26 01:52:00,
2013-01-25 20:01:00,28.0,19.0,30.10,North,349,8.0,13.0,69,0.00,,,0.00,,2013-01-26 02:01:00,
2013-01-25 20:11:00,28.0,19.0,30.10,North,349,8.0,13.0,69,0.00,,,0.00,,2013-01-26 02:11:00,
2013-01-25 20:22:00,28.0,20.0,30.10,North,355,6.0,12.0,71,0.00,,,0.00,,2013-01-26 02:22:00,
2013-01-25 20:32:00,27.0,20.0,30.10,North,355,7.0,14.0,73,0.00,,,0.00,,2013-01-26 02:32:00,
2013-01-25 20:42:00,27.0,20.0,30.10,North,355,7.0,14.0,73,0.00,,,0.00,,2013-01-26 02:42:00,
2013-01-25 20:52:00,26.0,19.0,30.11,NNW,337,6.0,10.0,73,0.00,,,0.00,,2013-01-26 02:52:00,
2013-01-25 21:02:00,26.0,18.0,30.11,NNW,346,3.0,7.0,72,0.00,,,0.00,,2013-01-26 03:02:00,
2013-01-25 21:11:00,26.0,18.0,30.11,NNW,346,3.0,7.0,72,0.00,,,0.00,,2013-01-26 03:11:00,
2013-01-25 21:21:00,26.0,19.0,30.11,NNW,345,1.0,4.0,73,0.00,,,0.00,,2013-01-26 03:21:00,
2013-01-25 21:31:00,26.0,18.0,30.12,North,360,2.0,4.0,72,0.00,,,0.00,,2013-01-26 03:31:00,
2013-01-25 21:42:00,26.0,18.0,30.12,North,360,2.0,4.0,72,0.00,,,0.00,,2013-01-26 03:42:00,
2013-01-25 21:51:00,25.0,18.0,30.12,NNW,346,0.0,4.0,73,0.00,,,0.00,,2013-01-26 03:51:00,
2013-01-25 22:02:00,24.0,17.0,30.12,NNW,346,0.0,2.0,75,0.00,,,0.00,,2013-01-26 04:02:00,
2013-01-25 22:12:00,24.0,17.0,30.12,NNW,346,0.0,2.0,75,0.00,,,0.00,,2013-01-26 04:12:00,
2013-01-25 22:21:00,24.0,18.0,30.12,North,350,0.0,3.0,76,0.00,,,0.00,,2013-01-26 04:21:00,
2013-01-25 22:32:00,24.0,18.0,30.13,North,350,1.0,2.0,77,0.00,,,0.00,,2013-01-26 04:32:00,
2013-01-25 22:42:00,24.0,18.0,30.13,North,350,1.0,2.0,77,0.00,,,0.00,,2013-01-26 04:42:00,
2013-01-25 22:52:00,24.0,18.0,30.14,North,350,0.0,2.0,77,0.00,,,0.00,,2013-01-26 04:52:00,
2013-01-25 23:03:00,23.0,17.0,30.15,North,360,0.0,3.0,78,0.00,,,0.00,,2013-01-26 05:03:00,
2013-01-25 23:12:00,23.0,17.0,30.15,North,360,0.0,3.0,78,0.00,,,0.00,,2013-01-26 05:12:00,
2013-01-25 23:23:00,23.0,17.0,30.16,WNW,302,0.0,1.0,79,0.00,,,0.00,,2013-01-26 05:23:00,
2013-01-25 23:33:00,23.0,18.0,30.16,NW,306,0.0,2.0,81,0.00,,,0.00,,2013-01-26 05:33:00,
2013-01-25 23:41:00,23.0,18.0,30.16,NW,306,0.0,2.0,81,0.00,,,0.00,,2013-01-26 05:41:00,
2013-01-25 23:52:00,23.0,18.0,30.17,NW,310,1.0,4.0,80,0.00,,,0.00,,2013-01-26 05:52:00,